Regional Weather Roundup
Issued by NWS Wakefield, VA

Home | Current Version | Previous Version | Text Only | Print | Product List | Glossary On
Versions: 1 2 3 4 5 6 7 8 9 10 11 12 13 14 15 16 17 18 19 20 21 22 23 24 25 26 27 28 29 30 31 32 33 34 35 36 37 38 39 40 41 42 43 44 45 46 47 48 49 50
000
ASUS41 KAKQ 230010
RWRAKQ

REGIONAL WEATHER ROUNDUP
NATIONAL WEATHER SERVICE WAKEFIELD VA
700 PM EST SAT NOV 22 2014

Note: "fair" indicates few or no clouds below 12,000 feet with no
significant weather and/or obstructions to visibility. * = Denotes
station may not report precipitation (e.g., rain,snow,etc.),
thunder or fog.

VAZ042-051-052>054-056-230100-
NORTHERN VIRGINIA

CITY           SKY/WX    TMP DP  RH WIND       PRES   REMARKS
WASH NATIONAL  CLEAR     45  18  34 S9        30.31F
DULLES         PTCLDY    42  16  34 S8        30.29S
FORT BELVOIR   CLEAR     39  20  46 S2        30.31F
QUANTICO       CLEAR     44  25  47 SW5       30.32F
FREDERICKSBRG* CLEAR     45  18  33 S6        30.31F
STAFFORD*      CLEAR     42  12  29 CALM      30.35F
WARRENTON      CLEAR     44  23  44 S8        30.28F
CULPEPER*      CLEAR     43  16  33 S5        30.29F
MANASSAS*      CLEAR     39  18  41 S3        30.30S
LEESBURG*      PTCLDY    43  21  42 S12       30.28F
WINCHESTER     CLOUDY    43  12  28 S3        30.22F
FRONT ROYAL*   CLOUDY    43  23  45 CALM      30.23S
LURAY*         MOCLDY    48  23  37 SW10      30.24S
$$

VAZ048-049-060>072-079>083-230100-
CENTRAL AND SOUTH CENTRAL VIRGINIA

CITY           SKY/WX    TMP DP  RH WIND       PRES   REMARKS
RICHMOND       MOCLDY    42  16  34 CALM      30.34F
CHESTERFIELD*  CLEAR     37  12  35 CALM      30.35F
PETERSBURG*    CLEAR     35  20  54 CALM      30.35F
HANOVER        CLEAR     33  22  63 CALM      30.35F
TAPPAHANNOCK*  CLEAR     40  12  30 S5        30.35F
QUINTON*       FAIR      35  22  59 CALM      30.36S
CHARLOTTSVILLE CLEAR     39  18  42 S8        30.29F
GORDONSVILLE*  CLEAR     38  18  44 W3        30.30F
ORANGE*        CLEAR     41  18  38 S6        30.32F
LOUISA*        CLEAR     43  18  36 S5        30.30F
BUMPASS*       FAIR      39  17  40 SW6       30.32F
FARMVILLE*     CLEAR     38  19  46 CALM      30.32F
CREWE*         CLEAR     36  18  47 CALM      30.33F
FORT PICKETT*  CLEAR     37  18  45 CALM      30.34F
LUNENBURG*     CLEAR     36  22  56 CALM      30.33F
CHASE CITY*    FAIR      36  24  63 S3        30.34S
CLARKSVILLE*   FAIR      37  23  56 S5        30.34S
SOUTH HILL*    CLEAR     33  24  68 CALM      30.40F
LAWRENCEVILLE* CLEAR     38  21  49 CALM      30.35F
$$

VAZ088>098-230100-
SOUTHEAST VIRGINIA

CITY           SKY/WX    TMP DP  RH WIND       PRES   REMARKS
NORFOLK        CLEAR     40  20  44 S7        30.38S
VIRGINIA BEACH PTCLDY    39  22  50 CALM      30.38F
NORFOLK NAVAL  PTCLDY    46  22  38 S3        30.38F
WEST POINT*    CLEAR     43  20  40 CALM      30.38R
SALUDA*        FAIR      37  20  49 SW6       30.36S
NEWPORT NEWS   LGT RAIN  36  25  64 CALM      30.37F
LANGLEY AFB    CLEAR     36  27  69 S6        30.37F
FORT EUSTIS    CLEAR     36  25  64 S3        30.35F
WILLIAMSBURG*  CLEAR     43  27  52 S6        30.37F
HR EXEC AP*    CLEAR     27  21  80 CALM      30.40F
FRANKLIN*      CLEAR     30  25  80 CALM      30.37F
WAKEFIELD      CLEAR     35  24  64 CALM      30.36F
$$

VAZ020-022-025-037-045-230100-
WEST CENTRAL AND SOUTHWEST VIRGINIA

CITY           SKY/WX    TMP DP  RH WIND       PRES   REMARKS
STAUNTON*      CLEAR     42  16  35 S5        30.27F
WAYNESBORO*    CLEAR     40  17  39 S5        30.26F
HOT SPRINGS VA CLEAR     40  14  35 S3        30.21S
LYNCHBURG      CLEAR     33  18  53 CALM      30.33F
DANVILLE       CLEAR     37  19  48 CALM      30.34F
SOUTH BOSTON*  CLEAR     39  18  43 S5        30.34S
MARTINSVILLE   CLEAR     32  23  68 CALM      30.35S
ROANOKE        PTCLDY    40  18  41 SE8       30.32S
BLACKSBURG     PTCLDY    39  21  48 S6        30.30S
DUBLIN*        CLEAR     42  19  40 SW3       30.29S
MARION*        CLEAR     42  20  42 CALM      30.28R
HILLSVILLE*    FAIR      38  18  45 S8        30.28S
RICHLANDS*     CLEAR     53  13  20 SW5       30.23F
WISE*          CLEAR     46  14  27 S9        30.22F
ABINGDON*      CLEAR     44  23  44 CALM      30.24R
$$

MDZ021>025-VAZ099-100-230100-
SOUTHERN MARYLAND AND THE DELMARVA PENINSULA

CITY           SKY/WX    TMP DP  RH WIND       PRES   REMARKS
PATUXENT RIVER CLEAR     44  18  35 SW9       30.33S
BAY BRIDGE APT   N/A     45  21  39 S7        30.31S
LEONARDTOWN    CLEAR     43  18  36 SW6       30.34S
DOVER          PTCLDY    39  24  55 S10       30.30S
GEORGETOWN     CLEAR     36  24  62 S7        30.34S
EASTON         NOT AVBL
CAMBRIDGE      CLEAR     37  28  70 CALM      30.33R
SALISBURY      FAIR      39  24  55 S6        30.34F
OCEAN CITY     CLEAR     41  29  62 SW8       30.35F
WALLOPS ISLAND CLEAR     41  23  48 SW7       30.38R
ACCOMACK*      CLEAR     37  23  56 SW5       30.37S
$$

NCZ012>017-030>032-230100-
NORTH CENTRAL AND EASTERN NORTH CAROLINA

CITY           SKY/WX    TMP DP  RH WIND       PRES   REMARKS
ROANOKE RAPIDS CLEAR     36  23  60 CALM      30.37S
RALEIGH        PTCLDY    40  17  39 CALM      30.36F
ELIZABETH CITY PTCLDY    40  31  70 SE6       30.39F
AHOSKIE*       CLEAR     33  23  68 CALM      30.38F
EDENTON*       PTCLDY    37  32  81 CALM      30.39F
CURRITUCK*     PTCLDY    40  33  74 CALM      30.40F
KILL DEVIL HLS PTCLDY    45  39  78 S3        30.39F
MANTEO         PTCLDY    46  41  81 S3        30.41F
CAPE HATTERAS  CLEAR     45  43  93 N5        30.40F
TARBORO*       CLEAR     33  26  76 CALM      30.38F
GOLDSBORO      CLEAR     37  29  73 CALM      30.35F
WASHINGTON     CLEAR     38  26  61 SE5       30.39F
GREENVILLE     CLEAR     37  27  65 CALM      30.38F
NEW BERN       CLEAR     41  34  76 CALM      30.40F
WILMINGTON     CLEAR     45  41  86 CALM      30.38F
$$

VAZ048-230100-
ELSEWHERE

CITY           SKY/WX    TMP DP  RH WIND       PRES   REMARKS
HARRISBURG PA  CLOUDY    36  21  54 SE3       30.25F
BALTIMORE      PTCLDY    43  15  32 SW6       30.29S
ANNAPOLIS      CLEAR     43  17  35 S3        30.31S
ANDREWS AFB    CLEAR     41  17  38 SW8       30.30S
PHILADELPHIA   CLOUDY    44  21  40 SW12      30.31S
WILDWOOD NJ*   MOCLDY    43  19  39 SW13      30.31F
HENDERSON NC   CLEAR     40  15  35 S3        30.35F
GREENSBORO     PTCLDY    44  17  33 S5        30.32F
ROCKY MOUNT    CLEAR     36  24  62 CALM      30.37F
$$

VAZ100-230100-
MARINE

STATION/POSITION TIME  TEMP    WIND        PRES    WAVE   SWELL
                       AIR SEA DIR/SP/G            HT/PER HT/PER
                 (UTC) (F)     (DEG/KT/KT) (MB)    (FT/S) (FT/S)
CAPE MAY NJ      0000   44 47  210/ 14/ 18 1026.6F
LEWES DE         0000   41 45  220/  4/  6 1026.9F
15NM E FENWICK I 0000   48 54              1026.8F   4/ 5
OCEAN-CITY-INLET 0000   42 47  230/ 13/ 15 1027.3F
WACHAPREAGUE VA  0000   39 42   CALM  /  1 1028.5R
THOMAS POINT MD  0000   46 47  200/ 16/ 18 1027.4F
GOOSES REEF MD   0000   46     210/ 14/ 17 1027.1S
COVE POINT MD    0000   45     200/ 11/ 13 1026.7F
SOLOMONS ISLAND  0000      48                N/A
BISHOPS HEAD MD  0000   44 40  200/ 11/ 12 1026.7F
PINEY POINT MD   0000          210/  6/  8   N/A
POTOMAC MD       0000   46     200/ 10/ 12 1027.1F
CAMBRIDGE MD     0000   40 42  180/  3/  5 1026.8S
LEWISETTA VA     0000   42 43  220/  8/  9 1027.0F
RAPPAHANNOCK LGT 0000          210/ 11/ 12 1028.7R
STINGRAY PT      0000   45     190/  8/  8 1028.5F
YORK RVR RNG VA  0000   47     200/  8/  9 1027.7F
YORKTOWN VA      0000   43 50  200/  4/  6 1027.8F
JAMESTOWN VA     0000   44     180/  4/  6   N/A
DOMINION TERM VA 0000   47     200/  5/  6 1028.9F
KIPTOPEKE VA     0000      52  210/  9/ 10   N/A
CHES BAY BRIDGE  0000   48 51  170/  6/  8 1028.5S
CAPE HENRY VA    0000   45     190/  5/  7 1027.7F
CHESAPEAKE LGHT  2300   51     220/ 15/ 16 1029.6F
WILLOUBY STN VA  0000   49     250/  3/  5 1027.4F
S CRANEY ISL VA  0000          170/  3/  5 1028.5F
CAPE HENRY BUOY  2300      54                N/A     2/ 3
1ST LANDING BUOY 0000   48     180/  8/ 10 1028.5S
CAPE CHARLES BUO 0000      54                N/A     2/ 3   2/ 8
64NM E OF VA BCH 0000   54 60  220/ 14/ 16 1029.1S   2/ 8   2/ 8
DUCK PIER NC     0000   48 54  180/ 11/ 12 1028.6F
44100 DUCK FRF   2300      57                N/A     2/ 6
44056 DUCK FRF   0000      56                N/A     2/ 6
OREGON INLET NC  0000   48 52  190/  5/  5 1029.7F
HATTERAS NC      0000   49 52  350/  2/  3 1029.8F
DIAMOND SHLS NC  0000   60      CALM  /  6 1029.8F   3/ 9



USA.gov is the U.S. government's official web portal to all federal, state and local government web resources and services.